| time (UTC) | temp C | wind direction | speed KPH | gust KPH | rain 1hr cm | rain 24hr cm | rain mn cm | humidity % | barometer mb |
| 20260508160036 | 17 | 0 | 0.0 | 3.2 | 0.00 | 0.00 | 0.00 | 69 | 1010.6 |
| 20260508155527 | 17 | 0 | 0.0 | 3.2 | 0.00 | 0.00 | 0.00 | 68 | 1010.6 |
| 20260508155025 | 17 | 156 | 0.0 | 4.8 | 0.00 | 0.00 | 0.00 | 68 | 1010.6 |
| 20260508154536 | 17 | 0 | 0.0 | 4.8 | 0.00 | 0.00 | 0.00 | 68 | 1010.5 |
| 20260508154025 | 17 | 0 | 0.0 | 4.8 | 0.00 | 0.00 | 0.00 | 69 | 1010.6 |
| 20260508153526 | 16 | 189 | 0.0 | 3.2 | 0.00 | 0.00 | 0.00 | 68 | 1010.4 |
| 20260508153037 | 16 | 0 | 0.0 | 1.6 | 0.00 | 0.00 | 0.00 | 69 | 1010.4 |
| 20260508152524 | 16 | 0 | 0.0 | 4.8 | 0.00 | 0.00 | 0.00 | 70 | 1010.4 |
| 20260508152024 | 16 | 0 | 0.0 | 4.8 | 0.00 | 0.00 | 0.00 | 69 | 1010.2 |
| 20260508151534 | 16 | 0 | 0.0 | 1.6 | 0.00 | 0.00 | 0.00 | 70 | 1010.2 |
| 20260508151026 | 16 | 0 | 0.0 | 1.6 | 0.00 | 0.00 | 0.00 | 70 | 1010.3 |
| 20260508150527 | 16 | 0 | 0.0 | 3.2 | 0.00 | 0.00 | 0.00 | 69 | 1010.3 |
| 20260508150042 | 16 | 0 | 0.0 | 3.2 | 0.00 | 0.00 | 0.00 | 69 | 1010.3 |
| 20260508145529 | 16 | 0 | 0.0 | 3.2 | 0.00 | 0.00 | 0.00 | 70 | 1010.3 |
| 20260508145024 | 16 | 0 | 0.0 | 4.8 | 0.00 | 0.00 | 0.00 | 70 | 1010.3 |
| 20260508144538 | 16 | 0 | 0.0 | 4.8 | 0.00 | 0.00 | 0.00 | 70 | 1010.4 |
| 20260508144027 | 16 | 0 | 0.0 | 1.6 | 0.00 | 0.00 | 0.00 | 71 | 1010.4 |
| 20260508143526 | 15 | 0 | 0.0 | 3.2 | 0.00 | 0.00 | 0.00 | 70 | 1010.6 |
| 20260508143036 | 15 | 0 | 0.0 | 3.2 | 0.00 | 0.00 | 0.00 | 70 | 1010.6 |
| 20260508142524 | 15 | 329 | 0.0 | 9.7 | 0.00 | 0.00 | 0.00 | 70 | 1010.6 |
| 20260508142026 | 15 | 0 | 0.0 | 11.3 | 0.00 | 0.00 | 0.00 | 69 | 1010.4 |
| 20260508141537 | 15 | 148 | 0.0 | 11.3 | 0.00 | 0.00 | 0.00 | 69 | 1010.4 |
| 20260508141029 | 15 | 295 | 0.0 | 12.9 | 0.00 | 0.00 | 0.00 | 69 | 1010.2 |
| 20260508140525 | 15 | 202 | 1.6 | 12.9 | 0.00 | 0.00 | 0.00 | 69 | 1010.1 |
| 20260508140035 | 15 | 172 | 1.6 | 12.9 | 0.00 | 0.00 | 0.00 | 69 | 1010.0 |
| 20260508135522 | 15 | 173 | 0.0 | 11.3 | 0.00 | 0.00 | 0.00 | 69 | 1010.2 |
| 20260508135028 | 15 | 235 | 1.6 | 11.3 | 0.00 | 0.00 | 0.00 | 69 | 1010.1 |
| 20260508134538 | 15 | 0 | 0.0 | 11.3 | 0.00 | 0.00 | 0.00 | 69 | 1010.1 |
| 20260508134025 | 15 | 240 | 3.2 | 12.9 | 0.00 | 0.00 | 0.00 | 70 | 1010.1 |
| 20260508133528 | 15 | 193 | 1.6 | 14.5 | 0.00 | 0.00 | 0.00 | 70 | 1010.1 |
| 20260508133038 | 15 | 0 | 3.2 | 14.5 | 0.00 | 0.00 | 0.00 | 70 | 1010.2 |
| 20260508132522 | 14 | 0 | 0.0 | 8.0 | 0.00 | 0.00 | 0.00 | 70 | 1010.3 |
| 20260508132024 | 14 | 0 | 3.2 | 8.0 | 0.00 | 0.00 | 0.00 | 70 | 1010.3 |
| 20260508131535 | 14 | 173 | 0.0 | 11.3 | 0.00 | 0.00 | 0.00 | 71 | 1010.4 |
| 20260508131028 | 13 | 194 | 1.6 | 11.3 | 0.00 | 0.00 | 0.00 | 71 | 1010.3 |
| 20260508130522 | 13 | 172 | 1.6 | 8.0 | 0.00 | 0.00 | 0.00 | 71 | 1010.3 |
| 20260508130056 | 13 | 190 | 0.0 | 8.0 | 0.00 | 0.00 | 0.00 | 71 | 1010.3 |
| 20260508125523 | 13 | 0 | 0.0 | 14.5 | 0.00 | 0.00 | 0.00 | 71 | 1010.3 |
| 20260508125023 | 13 | 0 | 1.6 | 16.1 | 0.00 | 0.00 | 0.00 | 71 | 1010.2 |
| 20260508124535 | 13 | 180 | 6.4 | 16.1 | 0.00 | 0.00 | 0.00 | 71 | 1010.3 |
| 20260508124022 | 13 | 0 | 0.0 | 4.8 | 0.00 | 0.00 | 0.00 | 71 | 1010.2 |
| 20260508123524 | 13 | 136 | 0.0 | 4.8 | 0.00 | 0.00 | 0.00 | 71 | 1010.2 |
| 20260508123035 | 13 | 0 | 0.0 | 0.0 | 0.00 | 0.00 | 0.00 | 71 | 1010.2 |
| 20260508122523 | 13 | 0 | 0.0 | 0.0 | 0.00 | 0.00 | 0.00 | 70 | 1010.2 |
| 20260508122022 | 13 | 0 | 0.0 | 6.4 | 0.00 | 0.00 | 0.00 | 69 | 1010.2 |
| 20260508121538 | 13 | 0 | 0.0 | 8.0 | 0.00 | 0.00 | 0.00 | 69 | 1010.3 |
| 20260508121023 | 13 | 0 | 1.6 | 9.7 | 0.00 | 0.00 | 0.00 | 69 | 1009.9 |
| 20260508120523 | 13 | 182 | 1.6 | 14.5 | 0.00 | 0.00 | 0.00 | 69 | 1009.8 |
| 20260508120038 | 13 | 0 | 1.6 | 14.5 | 0.00 | 0.00 | 0.00 | 70 | 1009.8 |
| 20260508115522 | 13 | 0 | 1.6 | 12.9 | 0.00 | 0.00 | 0.00 | 70 | 1009.7 |
| 20260508115023 | 13 | 182 | 1.6 | 12.9 | 0.00 | 0.00 | 0.00 | 70 | 1009.8 |
| 20260508114535 | 13 | 176 | 0.0 | 12.9 | 0.00 | 0.00 | 0.00 | 70 | 1009.7 |
| 20260508114022 | 13 | 176 | 1.6 | 12.9 | 0.00 | 0.00 | 0.00 | 70 | 1009.5 |
| 20260508113523 | 13 | 171 | 3.2 | 12.9 | 0.00 | 0.00 | 0.00 | 70 | 1009.4 |
| 20260508113041 | 13 | 202 | 1.6 | 11.3 | 0.00 | 0.00 | 0.00 | 70 | 1009.5 |
| 20260508112523 | 13 | 206 | 1.6 | 12.9 | 0.00 | 0.00 | 0.00 | 71 | 1009.5 |
| 20260508112023 | 13 | 0 | 1.6 | 12.9 | 0.00 | 0.00 | 0.00 | 71 | 1009.8 |
| 20260508111534 | 13 | 165 | 1.6 | 14.5 | 0.00 | 0.00 | 0.00 | 70 | 1009.6 |
| 20260508111023 | 13 | 0 | 0.0 | 14.5 | 0.00 | 0.00 | 0.00 | 70 | 1009.5 |
| 20260508110522 | 13 | 170 | 3.2 | 14.5 | 0.00 | 0.00 | 0.00 | 70 | 1009.4 |
| 20260508110037 | 13 | 216 | 0.0 | 12.9 | 0.00 | 0.00 | 0.00 | 70 | 1009.6 |
| 20260508105526 | 13 | 190 | 0.0 | 8.0 | 0.00 | 0.00 | 0.00 | 69 | 1009.7 |
| 20260508105025 | 13 | 308 | 0.0 | 11.3 | 0.00 | 0.00 | 0.00 | 68 | 1009.8 |
| 20260508104603 | 13 | 0 | 1.6 | 11.3 | 0.00 | 0.00 | 0.00 | 68 | 1009.8 |
| 20260508104021 | 13 | 0 | 1.6 | 11.3 | 0.00 | 0.00 | 0.00 | 67 | 1009.6 |
| 20260508103521 | 13 | 177 | 0.0 | 17.7 | 0.00 | 0.00 | 0.00 | 67 | 1009.6 |
| 20260508103044 | 13 | 0 | 0.0 | 17.7 | 0.00 | 0.00 | 0.00 | 67 | 1009.9 |
| 20260508102525 | 13 | 191 | 1.6 | 14.5 | 0.00 | 0.00 | 0.00 | 67 | 1009.8 |
| 20260508102024 | 13 | 259 | 1.6 | 12.9 | 0.00 | 0.00 | 0.00 | 67 | 1009.6 |
| 20260508101542 | 13 | 0 | 1.6 | 16.1 | 0.00 | 0.00 | 0.00 | 67 | 1009.6 |
| 20260508101025 | 13 | 167 | 1.6 | 16.1 | 0.00 | 0.00 | 0.00 | 67 | 1009.4 |
| 20260508100524 | 13 | 150 | 1.6 | 16.1 | 0.00 | 0.00 | 0.00 | 66 | 1009.6 |
| 20260508100034 | 14 | 0 | 3.2 | 19.3 | 0.00 | 0.00 | 0.00 | 66 | 1009.5 |
| 20260508095524 | 14 | 153 | 1.6 | 19.3 | 0.00 | 0.00 | 0.00 | 65 | 1009.3 |
| 20260508095023 | 14 | 174 | 4.8 | 16.1 | 0.00 | 0.00 | 0.00 | 65 | 1009.5 |
| 20260508094543 | 14 | 211 | 1.6 | 12.9 | 0.00 | 0.00 | 0.00 | 65 | 1009.5 |
| 20260508094025 | 14 | 146 | 3.2 | 12.9 | 0.00 | 0.00 | 0.00 | 65 | 1009.4 |
| 20260508093525 | 14 | 0 | 3.2 | 20.9 | 0.00 | 0.00 | 0.00 | 65 | 1009.3 |
| 20260508093038 | 14 | 173 | 1.6 | 20.9 | 0.00 | 0.00 | 0.00 | 64 | 1009.4 |
| 20260508092525 | 14 | 177 | 1.6 | 12.9 | 0.00 | 0.00 | 0.00 | 65 | 1009.3 |
| 20260508092024 | 14 | 210 | 1.6 | 12.9 | 0.00 | 0.00 | 0.00 | 64 | 1009.4 |
| 20260508091536 | 14 | 144 | 1.6 | 12.9 | 0.00 | 0.00 | 0.00 | 64 | 1009.3 |
| 20260508091027 | 14 | 172 | 3.2 | 12.9 | 0.00 | 0.00 | 0.00 | 63 | 1009.3 |
| 20260508090525 | 14 | 195 | 3.2 | 16.1 | 0.00 | 0.00 | 0.00 | 63 | 1009.3 |
| 20260508090037 | 15 | 0 | 1.6 | 16.1 | 0.00 | 0.00 | 0.00 | 63 | 1009.3 |
| 20260508085525 | 14 | 186 | 3.2 | 14.5 | 0.00 | 0.00 | 0.00 | 63 | 1009.4 |
| 20260508085025 | 14 | 254 | 3.2 | 16.1 | 0.00 | 0.00 | 0.00 | 63 | 1009.4 |
| 20260508084541 | 15 | 0 | 3.2 | 16.1 | 0.00 | 0.00 | 0.00 | 63 | 1009.5 |
| 20260508084025 | 15 | 190 | 1.6 | 12.9 | 0.00 | 0.00 | 0.00 | 63 | 1009.4 |
| 20260508083528 | 15 | 235 | 3.2 | 14.5 | 0.00 | 0.00 | 0.00 | 63 | 1009.4 |
| 20260508083056 | 15 | 195 | 3.2 | 14.5 | 0.00 | 0.00 | 0.00 | 63 | 1009.4 |
| 20260508082524 | 15 | 0 | 3.2 | 12.9 | 0.00 | 0.00 | 0.00 | 63 | 1009.5 |
| 20260508082024 | 15 | 176 | 1.6 | 14.5 | 0.00 | 0.00 | 0.00 | 62 | 1009.5 |
| 20260508081552 | 15 | 159 | 4.8 | 16.1 | 0.00 | 0.00 | 0.00 | 62 | 1009.5 |
| 20260508081024 | 15 | 207 | 3.2 | 16.1 | 0.00 | 0.00 | 0.00 | 62 | 1009.6 |
| 20260508080526 | 15 | 211 | 1.6 | 16.1 | 0.00 | 0.00 | 0.00 | 62 | 1009.6 |
| 20260508080036 | 15 | 162 | 3.2 | 16.1 | 0.00 | 0.00 | 0.00 | 62 | 1009.7 |
| 20260508075524 | 15 | 208 | 3.2 | 12.9 | 0.00 | 0.00 | 0.00 | 62 | 1009.8 |
| 20260508075028 | 15 | 201 | 1.6 | 12.9 | 0.00 | 0.00 | 0.00 | 62 | 1009.9 |
| 20260508074536 | 15 | 220 | 3.2 | 14.5 | 0.00 | 0.00 | 0.00 | 61 | 1010.0 |
| 20260508074026 | 15 | 0 | 1.6 | 14.5 | 0.00 | 0.00 | 0.00 | 61 | 1010.1 |
| 20260508073525 | 15 | 0 | 3.2 | 14.5 | 0.00 | 0.00 | 0.00 | 61 | 1010.1 |
| 20260508073034 | 15 | 0 | 0.0 | 8.0 | 0.00 | 0.00 | 0.00 | 62 | 1010.2 |
| 20260508072523 | 15 | 182 | 0.0 | 9.7 | 0.00 | 0.00 | 0.00 | 61 | 1010.4 |
| 20260508072124 | 15 | 0 | 1.6 | 9.7 | 0.00 | 0.00 | 0.00 | 62 | 1010.3 |
| 20260508071538 | 15 | 0 | 1.6 | 9.7 | 0.00 | 0.00 | 0.00 | 62 | 1010.4 |
| 20260508071023 | 15 | 156 | 3.2 | 16.1 | 0.00 | 0.00 | 0.00 | 62 | 1010.4 |
| 20260508070527 | 15 | 229 | 0.0 | 16.1 | 0.00 | 0.00 | 0.00 | 63 | 1010.4 |
| 20260508070113 | 15 | 0 | 3.2 | 16.1 | 0.00 | 0.00 | 0.00 | 63 | 1010.5 |
| 20260508065523 | 15 | 153 | 1.6 | 12.9 | 0.00 | 0.00 | 0.00 | 63 | 1010.4 |
| 20260508065022 | 15 | 0 | 1.6 | 17.7 | 0.00 | 0.00 | 0.00 | 64 | 1010.4 |
| 20260508064538 | 15 | 168 | 3.2 | 17.7 | 0.00 | 0.00 | 0.00 | 64 | 1010.3 |
| 20260508064025 | 15 | 0 | 3.2 | 16.1 | 0.00 | 0.00 | 0.00 | 65 | 1010.4 |
| 20260508063528 | 15 | 203 | 3.2 | 11.3 | 0.00 | 0.00 | 0.00 | 64 | 1010.6 |
| 20260508063037 | 15 | 0 | 0.0 | 9.7 | 0.00 | 0.00 | 0.00 | 64 | 1010.7 |
| 20260508062522 | 15 | 0 | 1.6 | 11.3 | 0.00 | 0.00 | 0.00 | 64 | 1010.9 |
| 20260508062023 | 15 | 179 | 3.2 | 11.3 | 0.00 | 0.00 | 0.00 | 63 | 1011.0 |
| 20260508061537 | 14 | 0 | 1.6 | 16.1 | 0.00 | 0.00 | 0.00 | 63 | 1011.1 |
| 20260508061022 | 14 | 181 | 0.0 | 16.1 | 0.00 | 0.00 | 0.00 | 63 | 1011.2 |
| 20260508060524 | 14 | 159 | 3.2 | 11.3 | 0.00 | 0.00 | 0.00 | 63 | 1011.1 |
| 20260508060044 | 14 | 185 | 3.2 | 11.3 | 0.00 | 0.00 | 0.00 | 63 | 1011.2 |
| 20260508055522 | 14 | 167 | 0.0 | 9.7 | 0.00 | 0.00 | 0.00 | 63 | 1011.2 |
| 20260508055024 | 14 | 234 | 0.0 | 9.7 | 0.00 | 0.00 | 0.00 | 64 | 1011.2 |
| 20260508054543 | 14 | 185 | 0.0 | 9.7 | 0.00 | 0.00 | 0.00 | 63 | 1011.2 |
| 20260508054023 | 14 | 167 | 0.0 | 11.3 | 0.00 | 0.00 | 0.00 | 63 | 1011.1 |
| 20260508053521 | 14 | 157 | 0.0 | 11.3 | 0.00 | 0.00 | 0.00 | 63 | 1011.2 |
| 20260508053038 | 15 | 189 | 0.0 | 11.3 | 0.00 | 0.00 | 0.00 | 63 | 1011.2 |
| 20260508052524 | 15 | 157 | 0.0 | 9.7 | 0.00 | 0.00 | 0.00 | 62 | 1011.1 |
| 20260508052023 | 15 | 212 | 1.6 | 9.7 | 0.00 | 0.00 | 0.00 | 61 | 1011.2 |
| 20260508051535 | 15 | 197 | 1.6 | 11.3 | 0.00 | 0.00 | 0.00 | 61 | 1011.2 |
| 20260508051023 | 15 | 0 | 1.6 | 11.3 | 0.00 | 0.00 | 0.00 | 61 | 1011.3 |
| 20260508050527 | 15 | 0 | 1.6 | 14.5 | 0.00 | 0.00 | 0.00 | 61 | 1011.3 |
| 20260508050036 | 15 | 172 | 3.2 | 14.5 | 0.00 | 0.00 | 0.00 | 61 | 1011.2 |
| 20260508045523 | 15 | 0 | 1.6 | 14.5 | 0.00 | 0.00 | 0.00 | 61 | 1011.3 |
| 20260508045023 | 15 | 180 | 1.6 | 14.5 | 0.00 | 0.00 | 0.00 | 60 | 1011.3 |
| 20260508044535 | 15 | 192 | 3.2 | 17.7 | 0.00 | 0.00 | 0.00 | 60 | 1011.3 |
| 20260508044023 | 15 | 203 | 6.4 | 17.7 | 0.00 | 0.00 | 0.00 | 60 | 1011.3 |
| 20260508043522 | 15 | 0 | 4.8 | 14.5 | 0.00 | 0.00 | 0.00 | 59 | 1011.2 |
| 20260508043053 | 15 | 188 | 4.8 | 12.9 | 0.00 | 0.00 | 0.00 | 59 | 1011.3 |
| 20260508042524 | 16 | 157 | 4.8 | 16.1 | 0.00 | 0.00 | 0.00 | 59 | 1011.4 |
| 20260508042022 | 16 | 163 | 3.2 | 16.1 | 0.00 | 0.00 | 0.00 | 59 | 1011.3 |
| 20260508041537 | 16 | 163 | 3.2 | 16.1 | 0.00 | 0.00 | 0.00 | 59 | 1011.4 |
| 20260508041025 | 16 | 186 | 4.8 | 16.1 | 0.00 | 0.00 | 0.00 | 60 | 1011.4 |
| 20260508040523 | 16 | 152 | 1.6 | 12.9 | 0.00 | 0.00 | 0.00 | 59 | 1011.4 |
| 20260508040036 | 16 | 146 | 1.6 | 14.5 | 0.00 | 0.00 | 0.00 | 60 | 1011.4 |
| 20260508035523 | 16 | 180 | 1.6 | 14.5 | 0.00 | 0.00 | 0.00 | 60 | 1011.3 |
| 20260508035025 | 16 | 198 | 1.6 | 14.5 | 0.00 | 0.00 | 0.00 | 60 | 1011.3 |
| 20260508034535 | 16 | 222 | 4.8 | 14.5 | 0.00 | 0.00 | 0.00 | 60 | 1011.4 |
| 20260508034023 | 16 | 181 | 3.2 | 12.9 | 0.00 | 0.00 | 0.00 | 59 | 1011.4 |
| 20260508033525 | 16 | 188 | 4.8 | 14.5 | 0.00 | 0.00 | 0.00 | 59 | 1011.3 |
| 20260508033038 | 16 | 160 | 3.2 | 14.5 | 0.00 | 0.00 | 0.00 | 59 | 1011.2 |
| 20260508032523 | 16 | 165 | 1.6 | 14.5 | 0.00 | 0.00 | 0.00 | 59 | 1011.2 |
| 20260508032023 | 16 | 148 | 3.2 | 16.1 | 0.00 | 0.00 | 0.00 | 58 | 1011.2 |
| 20260508031536 | 16 | 165 | 4.8 | 16.1 | 0.00 | 0.00 | 0.00 | 58 | 1011.2 |
| 20260508031024 | 16 | 0 | 3.2 | 16.1 | 0.00 | 0.00 | 0.00 | 57 | 1011.1 |
| 20260508030522 | 16 | 229 | 3.2 | 16.1 | 0.00 | 0.00 | 0.00 | 57 | 1011.2 |
| 20260508030048 | 17 | 154 | 1.6 | 17.7 | 0.00 | 0.00 | 0.00 | 57 | 1011.0 |
| 20260508025522 | 17 | 183 | 6.4 | 17.7 | 0.00 | 0.00 | 0.00 | 56 | 1010.9 |
| 20260508025023 | 17 | 194 | 6.4 | 16.1 | 0.00 | 0.00 | 0.00 | 56 | 1010.9 |
| 20260508024536 | 17 | 163 | 4.8 | 17.7 | 0.00 | 0.00 | 0.00 | 56 | 1010.8 |
| 20260508024025 | 17 | 0 | 3.2 | 17.7 | 0.00 | 0.00 | 0.00 | 56 | 1010.8 |
| 20260508023524 | 17 | 182 | 1.6 | 16.1 | 0.00 | 0.00 | 0.00 | 55 | 1010.8 |
| 20260508023037 | 17 | 186 | 4.8 | 16.1 | 0.00 | 0.00 | 0.00 | 55 | 1010.7 |
| 20260508022523 | 17 | 165 | 4.8 | 12.9 | 0.00 | 0.00 | 0.00 | 54 | 1010.8 |
| 20260508022021 | 17 | 170 | 3.2 | 16.1 | 0.00 | 0.00 | 0.00 | 54 | 1010.6 |
| 20260508021541 | 17 | 173 | 3.2 | 16.1 | 0.00 | 0.00 | 0.00 | 53 | 1010.6 |
| 20260508021024 | 17 | 162 | 1.6 | 12.9 | 0.00 | 0.00 | 0.00 | 53 | 1010.6 |
| 20260508020526 | 17 | 184 | 3.2 | 12.9 | 0.00 | 0.00 | 0.00 | 53 | 1010.6 |
| 20260508020036 | 17 | 173 | 3.2 | 12.9 | 0.00 | 0.00 | 0.00 | 52 | 1010.4 |
| 20260508015524 | 18 | 188 | 1.6 | 12.9 | 0.00 | 0.00 | 0.00 | 51 | 1010.4 |
| 20260508015024 | 18 | 155 | 3.2 | 12.9 | 0.00 | 0.00 | 0.00 | 51 | 1010.3 |
| 20260508014535 | 18 | 0 | 1.6 | 11.3 | 0.00 | 0.00 | 0.00 | 50 | 1010.3 |
| 20260508014024 | 18 | 169 | 1.6 | 9.7 | 0.00 | 0.00 | 0.00 | 49 | 1010.4 |
| 20260508013523 | 18 | 179 | 1.6 | 9.7 | 0.00 | 0.00 | 0.00 | 48 | 1010.2 |
| 20260508013034 | 18 | 175 | 3.2 | 11.3 | 0.00 | 0.00 | 0.00 | 49 | 1010.2 |
| 20260508012523 | 18 | 0 | 3.2 | 11.3 | 0.00 | 0.00 | 0.00 | 48 | 1010.3 |
| 20260508012024 | 18 | 182 | 1.6 | 9.7 | 0.00 | 0.00 | 0.00 | 48 | 1010.3 |
| 20260508011536 | 18 | 146 | 1.6 | 11.3 | 0.00 | 0.00 | 0.00 | 47 | 1010.2 |
| 20260508011023 | 18 | 183 | 3.2 | 11.3 | 0.00 | 0.00 | 0.00 | 47 | 1010.1 |
| 20260508010523 | 18 | 177 | 3.2 | 9.7 | 0.00 | 0.00 | 0.00 | 47 | 1010.1 |
| 20260508010042 | 19 | 160 | 1.6 | 11.3 | 0.00 | 0.00 | 0.00 | 46 | 1010.1 |
| 20260508005526 | 19 | 0 | 3.2 | 12.9 | 0.00 | 0.00 | 0.00 | 46 | 1010.1 |
| 20260508005023 | 19 | 150 | 1.6 | 12.9 | 0.00 | 0.00 | 0.00 | 46 | 1010.2 |
| 20260508004538 | 19 | 158 | 3.2 | 11.3 | 0.00 | 0.00 | 0.00 | 45 | 1010.1 |
| 20260508004023 | 19 | 152 | 3.2 | 11.3 | 0.00 | 0.00 | 0.00 | 45 | 1010.2 |
| 20260508003522 | 20 | 157 | 1.6 | 11.3 | 0.00 | 0.00 | 0.00 | 45 | 1010.1 |
| 20260508003037 | 20 | 0 | 1.6 | 11.3 | 0.00 | 0.00 | 0.00 | 45 | 1010.2 |
| 20260508002524 | 20 | 163 | 1.6 | 11.3 | 0.00 | 0.00 | 0.00 | 44 | 1010.2 |
| 20260508002023 | 20 | 162 | 1.6 | 12.9 | 0.00 | 0.00 | 0.00 | 44 | 1010.1 |
| 20260508001536 | 20 | 179 | 1.6 | 12.9 | 0.00 | 0.00 | 0.00 | 43 | 1010.1 |
| 20260508001023 | 20 | 153 | 1.6 | 14.5 | 0.00 | 0.00 | 0.00 | 43 | 1010.2 |
| 20260508000526 | 20 | 0 | 3.2 | 17.7 | 0.00 | 0.00 | 0.00 | 43 | 1010.2 |
| 20260508000034 | 20 | 136 | 4.8 | 17.7 | 0.00 | 0.00 | 0.00 | 43 | 1010.2 |
| 20260507235523 | 20 | 180 | 4.8 | 17.7 | 0.00 | 0.00 | 0.00 | 42 | 1010.2 |
| 20260507235023 | 20 | 190 | 6.4 | 17.7 | 0.00 | 0.00 | 0.00 | 42 | 1010.3 |
| 20260507234541 | 21 | 215 | 3.2 | 24.1 | 0.00 | 0.00 | 0.00 | 41 | 1010.3 |
| 20260507234024 | 21 | 190 | 4.8 | 24.1 | 0.00 | 0.00 | 0.00 | 42 | 1010.4 |
| 20260507233523 | 21 | 170 | 3.2 | 16.1 | 0.00 | 0.00 | 0.00 | 41 | 1010.4 |
| 20260507233036 | 21 | 273 | 3.2 | 16.1 | 0.00 | 0.00 | 0.00 | 42 | 1010.4 |
| 20260507232524 | 21 | 169 | 3.2 | 16.1 | 0.00 | 0.00 | 0.00 | 41 | 1010.5 |
| 20260507232024 | 21 | 142 | 4.8 | 14.5 | 0.00 | 0.00 | 0.00 | 41 | 1010.6 |
| 20260507231535 | 21 | 135 | 3.2 | 16.1 | 0.00 | 0.00 | 0.00 | 42 | 1010.6 |
| 20260507231023 | 21 | 140 | 3.2 | 16.1 | 0.00 | 0.00 | 0.00 | 41 | 1010.7 |
| 20260507230522 | 21 | 273 | 1.6 | 17.7 | 0.00 | 0.00 | 0.00 | 42 | 1010.7 |
| 20260507230036 | 21 | 248 | 3.2 | 19.3 | 0.00 | 0.00 | 0.00 | 43 | 1010.8 |
| 20260507225524 | 21 | 194 | 4.8 | 19.3 | 0.00 | 0.00 | 0.00 | 42 | 1010.8 |
| 20260507225022 | 21 | 292 | 3.2 | 14.5 | 0.00 | 0.00 | 0.00 | 43 | 1010.9 |
| 20260507224535 | 21 | 0 | 4.8 | 14.5 | 0.00 | 0.00 | 0.00 | 42 | 1010.9 |
| 20260507224023 | 21 | 0 | 3.2 | 12.9 | 0.00 | 0.00 | 0.00 | 42 | 1011.0 |
| 20260507223523 | 21 | 155 | 3.2 | 12.9 | 0.00 | 0.00 | 0.00 | 42 | 1011.0 |
| 20260507223034 | 21 | 0 | 3.2 | 12.9 | 0.00 | 0.00 | 0.00 | 42 | 1011.1 |
| 20260507222523 | 21 | 163 | 3.2 | 11.3 | 0.00 | 0.00 | 0.00 | 44 | 1011.1 |
| 20260507222022 | 21 | 180 | 3.2 | 12.9 | 0.00 | 0.00 | 0.00 | 43 | 1011.1 |
| 20260507221535 | 21 | 118 | 1.6 | 14.5 | 0.00 | 0.00 | 0.00 | 44 | 1011.2 |
| 20260507221022 | 21 | 148 | 4.8 | 17.7 | 0.00 | 0.00 | 0.00 | 43 | 1011.2 |
| 20260507220524 | 21 | 0 | 3.2 | 17.7 | 0.00 | 0.00 | 0.00 | 43 | 1011.2 |
| 20260507220037 | 21 | 341 | 4.8 | 14.5 | 0.00 | 0.00 | 0.00 | 43 | 1011.2 |
| 20260507215524 | 21 | 0 | 3.2 | 19.3 | 0.00 | 0.00 | 0.00 | 42 | 1011.3 |
| 20260507215027 | 21 | 0 | 6.4 | 19.3 | 0.00 | 0.00 | 0.00 | 43 | 1011.3 |
| 20260507214534 | 21 | 210 | 4.8 | 20.9 | 0.00 | 0.00 | 0.00 | 43 | 1011.3 |
| 20260507214023 | 21 | 121 | 4.8 | 20.9 | 0.00 | 0.00 | 0.00 | 44 | 1011.4 |
| 20260507213523 | 21 | 151 | 3.2 | 16.1 | 0.00 | 0.00 | 0.00 | 44 | 1011.4 |
| 20260507213038 | 21 | 260 | 4.8 | 19.3 | 0.00 | 0.00 | 0.00 | 41 | 1011.4 |
| 20260507212523 | 21 | 155 | 4.8 | 19.3 | 0.00 | 0.00 | 0.00 | 42 | 1011.6 |
| 20260507212021 | 21 | 283 | 1.6 | 25.7 | 0.00 | 0.00 | 0.00 | 46 | 1011.7 |
| 20260507211533 | 21 | 192 | 8.0 | 25.7 | 0.00 | 0.00 | 0.00 | 44 | 1011.7 |
| 20260507211021 | 21 | 178 | 6.4 | 19.3 | 0.00 | 0.00 | 0.00 | 45 | 1011.8 |
| 20260507210523 | 21 | 257 | 4.8 | 29.0 | 0.00 | 0.00 | 0.00 | 43 | 1011.8 |
| 20260507210036 | 21 | 162 | 3.2 | 29.0 | 0.00 | 0.00 | 0.00 | 43 | 1012.0 |
| 20260507205524 | 21 | 138 | 4.8 | 19.3 | 0.00 | 0.00 | 0.00 | 44 | 1012.1 |
| 20260507205024 | 21 | 148 | 4.8 | 20.9 | 0.00 | 0.00 | 0.00 | 46 | 1012.2 |
| 20260507204538 | 21 | 350 | 8.0 | 20.9 | 0.00 | 0.00 | 0.00 | 43 | 1012.2 |
| 20260507204023 | 21 | 352 | 4.8 | 19.3 | 0.00 | 0.00 | 0.00 | 44 | 1012.4 |
| 20260507203525 | 21 | 0 | 3.2 | 19.3 | 0.00 | 0.00 | 0.00 | 44 | 1012.4 |
| 20260507203036 | 20 | 288 | 8.0 | 19.3 | 0.00 | 0.00 | 0.00 | 44 | 1012.7 |
| 20260507202523 | 20 | 135 | 1.6 | 16.1 | 0.00 | 0.00 | 0.00 | 47 | 1012.7 |
| 20260507202023 | 20 | 232 | 6.4 | 22.5 | 0.00 | 0.00 | 0.00 | 47 | 1012.8 |
| 20260507201539 | 20 | 311 | 6.4 | 22.5 | 0.00 | 0.00 | 0.00 | 44 | 1012.9 |
| 20260507201024 | 20 | 166 | 6.4 | 22.5 | 0.00 | 0.00 | 0.00 | 45 | 1012.9 |
| 20260507200525 | 20 | 331 | 3.2 | 19.3 | 0.00 | 0.00 | 0.00 | 46 | 1013.1 |
| 20260507200048 | 20 | 276 | 4.8 | 14.5 | 0.00 | 0.00 | 0.00 | 45 | 1013.1 |
| 20260507195521 | 20 | 157 | 3.2 | 16.1 | 0.00 | 0.00 | 0.00 | 47 | 1013.4 |
| 20260507195028 | 20 | 0 | 4.8 | 17.7 | 0.00 | 0.00 | 0.00 | 47 | 1013.4 |
| 20260507194545 | 20 | 308 | 6.4 | 19.3 | 0.00 | 0.00 | 0.00 | 47 | 1013.5 |
| 20260507194023 | 20 | 243 | 4.8 | 25.7 | 0.00 | 0.00 | 0.00 | 47 | 1013.6 |
| 20260507193525 | 20 | 181 | 3.2 | 25.7 | 0.00 | 0.00 | 0.00 | 48 | 1013.5 |
| 20260507193037 | 20 | 316 | 4.8 | 25.7 | 0.00 | 0.00 | 0.00 | 48 | 1013.7 |
| 20260507192523 | 20 | 187 | 4.8 | 17.7 | 0.00 | 0.00 | 0.00 | 47 | 1013.6 |
| 20260507192022 | 20 | 248 | 4.8 | 19.3 | 0.00 | 0.00 | 0.00 | 48 | 1013.8 |
| 20260507191535 | 19 | 317 | 4.8 | 29.0 | 0.00 | 0.00 | 0.00 | 49 | 1013.7 |
| 20260507191023 | 19 | 166 | 3.2 | 29.0 | 0.00 | 0.00 | 0.00 | 50 | 1013.8 |
| 20260507190524 | 19 | 245 | 8.0 | 19.3 | 0.00 | 0.00 | 0.00 | 47 | 1013.8 |
| 20260507190035 | 20 | 236 | 3.2 | 20.9 | 0.00 | 0.00 | 0.00 | 49 | 1013.8 |
| 20260507185523 | 19 | 238 | 4.8 | 25.7 | 0.00 | 0.00 | 0.00 | 51 | 1013.8 |
| 20260507185025 | 18 | 0 | 6.4 | 25.7 | 0.00 | 0.00 | 0.00 | 49 | 1013.8 |
| 20260507184554 | 19 | 211 | 4.8 | 19.3 | 0.00 | 0.00 | 0.00 | 50 | 1013.9 |
| 20260507184024 | 18 | 333 | 4.8 | 17.7 | 0.00 | 0.00 | 0.00 | 51 | 1013.9 |
| 20260507183525 | 18 | 186 | 6.4 | 17.7 | 0.00 | 0.00 | 0.00 | 50 | 1014.1 |
| 20260507183042 | 18 | 251 | 3.2 | 16.1 | 0.00 | 0.00 | 0.00 | 51 | 1014.2 |
| 20260507182525 | 18 | 334 | 4.8 | 27.4 | 0.00 | 0.00 | 0.00 | 51 | 1014.2 |
| 20260507182025 | 18 | 292 | 4.8 | 27.4 | 0.00 | 0.00 | 0.00 | 51 | 1014.5 |
| 20260507181539 | 18 | 319 | 4.8 | 22.5 | 0.00 | 0.00 | 0.00 | 53 | 1014.5 |
| 20260507181027 | 18 | 279 | 6.4 | 20.9 | 0.00 | 0.00 | 0.00 | 52 | 1014.6 |
| 20260507180524 | 18 | 248 | 4.8 | 17.7 | 0.00 | 0.00 | 0.00 | 53 | 1014.7 |
| 20260507180034 | 18 | 252 | 4.8 | 17.7 | 0.00 | 0.00 | 0.00 | 52 | 1014.8 |
| 20260507175525 | 18 | 281 | 3.2 | 19.3 | 0.00 | 0.00 | 0.00 | 52 | 1014.7 |
| 20260507175024 | 18 | 297 | 3.2 | 19.3 | 0.00 | 0.00 | 0.00 | 53 | 1014.8 |
| 20260507174536 | 18 | 317 | 3.2 | 17.7 | 0.00 | 0.00 | 0.00 | 52 | 1014.9 |
| 20260507174025 | 17 | 169 | 3.2 | 25.7 | 0.00 | 0.00 | 0.00 | 54 | 1015.0 |
| 20260507173523 | 17 | 193 | 8.0 | 25.7 | 0.00 | 0.00 | 0.00 | 52 | 1015.1 |
| 20260507173043 | 17 | 0 | 3.2 | 22.5 | 0.00 | 0.00 | 0.00 | 54 | 1015.3 |
| 20260507172525 | 16 | 103 | 8.0 | 22.5 | 0.00 | 0.00 | 0.00 | 54 | 1015.4 |
| 20260507172025 | 17 | 193 | 3.2 | 22.5 | 0.00 | 0.00 | 0.00 | 55 | 1015.4 |
| 20260507171536 | 17 | 329 | 3.2 | 17.7 | 0.00 | 0.00 | 0.00 | 55 | 1015.3 |
| 20260507171026 | 16 | 0 | 4.8 | 22.5 | 0.00 | 0.00 | 0.00 | 56 | 1015.4 |
| 20260507170526 | 16 | 305 | 6.4 | 22.5 | 0.00 | 0.00 | 0.00 | 56 | 1015.5 |
| 20260507170035 | 16 | 290 | 4.8 | 19.3 | 0.00 | 0.00 | 0.00 | 56 | 1015.6 |
| 20260507165523 | 16 | 269 | 3.2 | 19.3 | 0.00 | 0.00 | 0.00 | 55 | 1015.6 |
| 20260507165024 | 16 | 292 | 6.4 | 19.3 | 0.00 | 0.00 | 0.00 | 57 | 1015.7 |
| 20260507164543 | 17 | 261 | 3.2 | 17.7 | 0.00 | 0.00 | 0.00 | 57 | 1015.7 |
| 20260507164024 | 16 | 5 | 3.2 | 16.1 | 0.00 | 0.00 | 0.00 | 56 | 1015.8 |
| 20260507163526 | 16 | 184 | 3.2 | 22.5 | 0.00 | 0.00 | 0.00 | 54 | 1015.9 |
| 20260507163037 | 16 | 315 | 3.2 | 22.5 | 0.00 | 0.00 | 0.00 | 56 | 1016.0 |
| 20260507162525 | 16 | 302 | 1.6 | 19.3 | 0.00 | 0.00 | 0.00 | 58 | 1016.1 |
| 20260507162025 | 16 | 5 | 3.2 | 14.5 | 0.00 | 0.00 | 0.00 | 59 | 1016.0 |
| 20260507161547 | 15 | 157 | 3.2 | 14.5 | 0.00 | 0.00 | 0.00 | 58 | 1016.2 |
| 20260507161025 | 16 | 109 | 1.6 | 16.1 | 0.00 | 0.00 | 0.00 | 58 | 1016.2 |
| 20260507160528 | 16 | 157 | 1.6 | 16.1 | 0.00 | 0.00 | 0.00 | 57 | 1016.1 |